sat.trackr.live / text

‹ back to catalog

FOSSASAT-2E22

NORAD 66779 · 2025-276DT

PAYLOAD ACTIVE UNKNOWN

§ Identity

Operator
Country
SPN
Launch date
2025-11-28
Launch site
AFWTR
Launch vehicle
Mass (kg)
RCS (m²)

External: N2YO · Heavens-Above · Gunter

§ Orbital elements

Epoch: 2026-09-20T10:50:34.033920Z

Period
94.78 min
Inclination
97.4103°
Eccentricity
0.0006077
Mean motion
15.19362827 rev/d
Perigee alt
503.6 km
Apogee alt
511.9 km
Semi-major
6,885.9 km
B*
7.1619e-5
RAAN
334.8774°
Arg perigee
148.8914°
Mean anomaly
211.2682°
Rev number
4,486

§ Raw data

FOSSASAT-2E221 66779U 25276DT  26263.45178280  .00001447  00000+0  71619-4 0  99942 66779  97.4103 334.8774 0006077 148.8914 211.2682 15.19362827 44860

JSON: /api/v1/satellites/66779 · /tle

For live sub-satellite position, see the globe view (requires WebGL).

§ Visibility from observer

Set your observer location to see the next 7 days of passes ≥ 10°. The values pass through the URL so the page stays shareable.

No JS? Fill the form by hand. The geolocation button needs JavaScript.